This demonstration page uses our WeatherBlox Daily Observations layout. Learn more.

Left ArrowRight Arrow

34.74481, -87.66753

Hourly Observations for May 18, 2020

Temp ( °F °C ) Dew Point ( °F °C ) Humidity (%) Winds ( mph kmh ) Pressure ( in mb ) Visibility ( mi km ) Precip ( " mm )
12:07 am 00:07 Cloudy with Thunderstorms 67 19.4 65 18.3 93 93 SW 8 13 29.84 1010 10 16 0.02 0.51
12:32 am 00:32 Mostly Cloudy 68 20 64 17.8 87 87 SE 6 9 29.80 1009 10 16 0.14 3.56
12:53 am 00:53 Clear 70 21.1 66 18.9 87 87 SSE 10 17 29.79 1009 10 16 0.14 3.56
1:53 am 01:53 Mostly Cloudy 69 20.6 65 18.3 87 87 S 8 13 29.78 1009 10 16 0.00 0.00
2:53 am 02:53 Mostly Cloudy 70 21.1 66 18.9 87 87 SE 6 9 29.76 1008 10 16 0.00 0.00
3:53 am 03:53 Clear 69 20.6 66 18.9 90 90 SSE 7 11 29.75 1008 10 16 0.00 0.00
4:15 am 04:15 Partly Cloudy 69 20.6 66 18.9 90 90 SSE 7 11 29.76 1008 10 16 0.00 0.00
4:53 am 04:53 Clear 68 20 65 18.3 90 90 SE 7 11 29.75 1007 10 16 0.00 0.00
5:53 am 05:53 Mostly Sunny 68 20 65 18.3 90 90 ESE 6 9 29.75 1008 10 16 0.00 0.00
6:28 am 06:28 Mostly Cloudy 68 20 66 18.9 93 93 SE 3 6 29.77 1008 10 16 0.00 0.00
6:53 am 06:53 Mostly Cloudy 69 20.6 66 18.9 90 90 SSE 5 7 29.77 1008 10 16 0.00 0.00
7:53 am 07:53 Cloudy 70 21.1 67 19.4 90 90 Calm 29.78 1009 10 16 0.00 0.00
8:53 am 08:53 Cloudy 71 21.7 67 19.4 87 87 Calm 29.79 1009 10 16 0.00 0.00
9:38 am 09:38 Cloudy 71 21.7 67 19.4 87 87 WNW 6 9 29.79 1009 10 16 0.00 0.00
9:53 am 09:53 Cloudy 72 22.2 67 19.4 84 84 NW 5 7 29.78 1009 10 16 0.00 0.00
10:53 am 10:53 Cloudy 73 22.8 66 18.9 79 79 W 7 11 29.79 1009 10 16 0.00 0.00
11:53 am 11:53 Cloudy 74 23.3 66 18.9 76 76 WNW 8 13 29.78 1009 10 16 0.00 0.00
12:11 pm 12:11 Cloudy 75 23.9 67 19.4 76 76 WNW 9 15 29.78 1008 10 16 0.00 0.00
12:34 pm 12:34 Mostly Cloudy 77 25 67 19.4 71 71 WNW 8 13 29.77 1008 10 16 0.00 0.00
12:53 pm 12:53 Mostly Cloudy 77 25 67 19.4 71 71 W 9 15 29.76 1008 10 16 0.00 0.00
1:53 pm 13:53 Mostly Cloudy 79 26.1 66 18.9 65 65 W 14 22 29.74 1007 10 16 0.00 0.00
2:42 pm 14:42 Cloudy 78 25.6 66 18.9 67 67 NW 10 17 29.73 1007 10 16 0.00 0.00
2:53 pm 14:53 Mostly Cloudy 79 26.1 66 18.9 65 65 NW 10 17 29.73 1007 10 16 0.00 0.00
3:14 pm 15:14 Mostly Cloudy 76 24.4 66 18.9 72 72 WNW 16 26 29.74 1007 10 16 0.00 0.00
3:42 pm 15:42 Cloudy 74 23.3 64 17.8 71 71 NW 12 19 29.74 1007 10 16 0.00 0.00
3:53 pm 15:53 Cloudy 74 23.3 63 17.2 69 69 NW 9 15 29.74 1007 10 16 0.00 0.00
4:53 pm 16:53 Mostly Sunny 78 25.6 62 16.7 58 58 WNW 13 20 29.72 1007 10 16 0.00 0.00
5:53 pm 17:53 Mostly Sunny 76 24.4 59 15 56 56 NW 8 13 29.72 1007 10 16 0.00 0.00
6:53 pm 18:53 Mostly Sunny 75 23.9 57 13.9 54 54 NW 10 17 29.73 1007 10 16 0.00 0.00
7:53 pm 19:53 Clear 71 21.7 56 13.3 59 59 NNW 9 15 29.76 1008 10 16 0.00 0.00
8:53 pm 20:53 Mostly Clear 67 19.4 56 13.3 68 68 NW 5 7 29.78 1009 10 16 0.00 0.00
9:53 pm 21:53 Clear 66 18.9 55 12.8 68 68 NNW 5 7 29.81 1010 10 16 0.00 0.00
10:53 pm 22:53 Clear 64 17.8 56 13.3 75 75 NNW 5 7 29.81 1010 10 16 0.00 0.00
11:53 pm 23:53 Clear 63 17.2 55 12.8 76 76 NNW 5 7 29.80 1009 10 16 0.00 0.00

Powered by AerisWeather